Weather in Khanlar

Azerbaijan     40°33′40″N   46°19′47″E
temp.,
°C
wind,
m/s
gust,
m/s
humid.,
%
clouds,
%
prec.,
mm/h
press.,
hPa
HPBL,
m
17 october, sun
sun1701:00+10w00880 0.0 101613
04:00+10wsw11892 0.0 101612
07:00+9ssw11835 0.0 101511
10:00+13nne21734 0.0 1014361
13:00+16ne426838 0.0 1012692
16:00+15ne327081 0.4 1011622
19:00+12wsw018412 0.3 101254
22:00+11wnw01860 0.3 101312
18 october, mon
mon1801:00+10wsw22899 0.0 101317
04:00+10wsw228610 0.0 101317
07:00+9sw228149 0.1 101314
10:00+13nne2170100 0.4 1014410
13:00+15ne4269100 0.6 1013858
16:00+13ne227695 1.6 1013516
19:00+11ssw118297 3.8 101525
22:00+10sw228461 7.1 101727
19 october, tue
tue1901:00+10ssw238099 5.1 1017136
04:00+9sse007878 5.3 101714
07:00+8sse11765 0.0 101711
10:00+11nne217512 0.3 1018416
13:00+12nne337192 0.4 1017996
16:00+10nne227699 0.9 1017676
19:00+9nw1184100 0.7 1018165
22:00+8ne11889 1.5 101829
20 october, wed
wed2001:00+6n119366 0.1 102018
04:00+7sw119059 0.1 102094
07:00+6nne119373 0.0 1022110
10:00+6nne228874 0.1 1023245
13:00+9ne327585 0.1 1022672
16:00+7ne2275100 0.3 1024715
19:00+7ene226671 0.1 1025397
22:00+6ne2370100 0.1 1026431
21 october, thu
thu2101:00+5se017275 0.0 1027187
04:00+3ne018284 0.1 102831
07:00+4ne117997 0.0 1029177
10:00+5nne317667 0.0 1030559
13:00+6ne3280100 0.1 1029631
16:00+5ne218497 0.1 1029489
19:00+5ne118471 0.0 1030208
22:00+4nne018528 0.0 103081